THOR ABLESTAR DEB, 335

Orbit data source: Space-Track

THOR ABLESTAR DEB, 335 is space debris in LEO originally from a launch on Thu, 29 Jun 1961 UTC launched from the Air Force Eastern Test Range (AFETR). Debris objects in space refer to the collection of defunct objects orbiting the Earth. Examples of debris include non-operational satellites, rocket bodies, and fragments generated from explosions, collisions, or faulty payload assembly.

Loading next visibility...
Identifier
335, 1961-015DM
Orbit
LEO
Country
Flag of USUS
Related business
Manufacturer
Unknown
Mission
Spacecraft
Bus & Motor
Unknown
Mass
Unknown
Launch date (UTC)
1961-06-29 (65 years ago)
Launch vehicle
Unknown
Launch site
Air Force Eastern Test Range (AFETR)
Object type
Payload
Rocket body
Debris
Shape & HBR
Unknown shape, 0.1 m
Radar Cross Section
Small (<0.1 m²)

Expand to show TLE details & history
Last TLE update: 14 hours ago

TLE from 14 hours ago
0 THOR ABLESTAR DEB
1   335U 61015DM  26036.54099885  .00001485  00000-0  69224-3 0  9993
2   335  66.8393 108.0052 0044146 268.9841  90.6196 14.22693856308582
Epoch: 2026-02-05T12:59Z
TLE epoch observation values (Epoch: 2026-02-05T12:59:02.300Z)
Latitude
-0.00007°
Longitude
137.55384°
Altitude
818.851 km
Speed
7.444 km/s
True Right ascension
07h 12m 01s
True Declination
0° 00' 00"
Sunlit
Object was in full shadow at epoch
Visualization orbit readout
Latitude
Unknown
Longitude
Unknown
Altitude
Unknown
Speed
Unknown
Apparent Right ascension
Unknown
Apparent Declination
Unknown
Sunlit
N/A
Visualization observer readout
Local Sidereal Time
04:51:33
Azimuth
Unknown
Elevation
Unknown
Doppler factor
Unknown
Orbital elements
Apogee altitude
846.374 km
Perigee altitude
782.868 km
Semi-major axis
7,192.758 km
Eccentricity
0.00441
Inclination
66.8393°
RAAN
108.0052°
Arg. of periapsis
268.9841°
True anomaly
91.12541°
Mean anomaly
90.6196°
Eccentric anomaly
90.87251°
Mean motion
3.55795 °/min
Orbital period
101.18 mins
BSTAR
0.00069224
Loading maneuver chart data...
Computing Atmospheric mass density...

Documentation

Showing up to 5 results
|